User: anonymous   Login
Location: Unspecified
(0.0000°N, 0.0000°E)
Time: 07:21:01
(UTC+00:00)
Language:

Kosmos-2218 - Orbit

View from above orbital plane
View from above orbital plane
View from above satellite
View from above satellite

Ground track
Ground track

The orbit data is extracted from the following two-line orbital elements,

1 22207U 92073A   19078.60890105 +.00000039 +00000-0 +25517-4 0  9994
2 22207 082.9187 295.1406 0033199 152.6765 235.0188 13.72873090321782
Epoch (UTC): 19 March 2019 14:36:49
Eccentricity: 0.0033199
inclination: 82.9187°
perigee height: 965 km
apogee height: 1014 km
right ascension of ascending node: 295.1406°
argument of perigee: 152.6765°
revolutions per day: 13.72873090
mean anomaly at epoch: 235.0188°
orbit number at epoch: 32178

The dashed part of the orbit path shows where the satellite is in the earth's shadow,  

DLR